{"data":{"norad_id":65703,"epoch":"2026-05-24T22:53:02.833728Z","epoch_age_seconds":72987,"freshness":"FRESH","line1":"1 65703U 25212AD  26144.95350502  .00012024  00000+0  39851-3 0  9996","line2":"2 65703  53.1608 351.1678 0001101  89.8340 270.2787 15.31708366 38927","mean_motion":15.31708366,"eccentricity":0.0001101,"inclination_deg":53.1608,"raan_deg":351.1678,"arg_perigee_deg":89.834,"mean_anomaly_deg":270.2787,"bstar":0.00039851,"rev_number":3892,"period_min":94.012674472785,"perigee_km":469.96099811704,"apogee_km":471.46911533993,"semimajor_km":6848.8520567285,"source":"CELESTRAK","updated_at":"2026-05-25T13:38:20.899576Z"}}